Wind_Speed
26 22 18 11 10 7 25 15 26 25 24 31 31 33 34 33 29 23 22 22 28 32 33 34 17 16 19 18 20 21 17 14 12 11 17 15 16 14 12 12 16 17 25 29 31 27 16 11 10
29 24 23 16 6 10 19 27 28 28 28 31 35 36 35 27 22 22 22 22 25 29 30 32 16 13 14 12 17 17 19 13 17 17 16 16 13 14 17 19 19 22 31 31 32 22 12 15 11
32 28 29 28 13 25 21 26 16 26 30 31 29 31 30 23 20 19 18 20 21 26 27 29 22 10 8 8 14 17 14 16 17 16 14 12 13 14 18 18 21 24 31 35 36 20 15 14 8
36 34 27 29 38 35 20 21 30 30 27 26 24 23 17 17 17 17 16 18 20 23 24 27 26 9 4 7 9 12 16 12 15 12 12 13 15 17 16 20 22 25 30 39 41 25 16 16 16
36 35 35 34 33 33 35 37 35 29 28 29 28 17 13 14 11 14 16 16 20 19 21 23 25 15 4 4 3 11 14 11 12 9 14 14 17 16 15 19 21 24 33 39 44 37 23 15 17
35 34 34 33 32 32 33 31 32 27 20 24 10 21 18 18 16 13 16 14 18 17 19 21 23 21 3 4 2 5 11 7 8 9 16 11 16 13 16 16 18 23 30 35 39 41 34 24 17
30 31 31 33 34 33 32 30 30 24 23 24 22 24 21 9 16 15 19 15 16 15 17 18 21 21 9 7 4 3 8 6 7 15 15 7 9 15 16 12 17 20 29 34 37 39 42 38 27
31 28 29 31 32 35 34 31 30 23 24 28 27 25 22 22 19 22 21 13 15 15 15 17 19 21 14 3 8 4 3 6 6 8 5 6 8 15 17 14 14 16 24 30 36 34 37 43 38
33 31 31 32 32 33 33 31 28 24 22 25 23 22 23 21 21 21 18 14 14 16 14 15 17 18 15 5 8 6 3 8 6 5 10 9 4 10 14 13 15 19 21 26 34 35 37 41 38
32 33 32 31 30 31 31 31 27 27 23 21 23 19 24 27 17 20 18 15 14 15 14 15 14 17 15 6 6 10 6 4 4 5 4 2 3 6 13 13 13 18 19 23 28 35 36 40 41
29 29 29 29 28 28 29 29 25 24 24 22 21 16 15 20 18 17 19 16 12 14 15 15 13 17 17 10 6 12 10 4 1 4 4 2 1 14 8 6 10 13 18 19 23 30 32 38 38
27 28 27 27 28 28 27 26 24 20 24 25 24 24 27 20 20 20 18 16 15 15 14 15 7 18 18 15 7 13 14 10 9 5 5 5 3 8 7 7 9 17 15 20 20 24 27 31 33
27 26 27 27 27 27 26 25 24 21 22 25 23 27 15 15 21 22 20 16 14 19 15 15 15 17 18 18 8 8 14 14 8 6 8 8 2 8 8 12 12 8 14 14 13 17 21 23 30
28 29 29 29 30 30 29 27 28 24 24 22 13 24 28 30 25 25 22 20 18 20 19 16 17 16 18 18 14 8 10 16 10 8 11 10 7 2 3 6 9 8 10 12 8 17 19 19 26
31 31 31 32 33 33 32 31 33 32 26 31 32 33 32 28 29 27 28 23 22 20 21 18 17 15 16 18 19 9 10 16 17 11 12 12 13 7 10 1 3 9 6 15 10 21 16 16 18
36 36 37 38 40 40 37 35 35 36 37 34 35 39 32 28 30 29 33 29 26 23 23 22 20 18 15 16 20 12 10 12 19 16 14 13 13 12 3 5 4 4 5 11 10 9 10 17 15
42 41 42 43 45 45 44 39 38 42 43 39 36 27 31 34 35 36 34 33 30 29 26 24 20 18 17 17 20 18 11 13 19 17 16 21 18 16 11 8 7 6 3 2 3 5 7 13 8
46 46 46 48 50 50 50 47 45 43 45 45 42 41 46 36 35 39 37 35 33 30 29 26 23 23 22 20 19 17 14 16 21 20 19 20 16 16 22 14 6 7 7 6 7 6 4 8 9
45 45 47 48 48 48 46 47 48 45 47 48 45 44 40 31 32 35 37 37 39 32 29 26 26 25 25 22 23 16 18 18 21 21 26 22 17 13 15 16 14 16 13 8 6 6 5 8 13
42 41 40 40 40 36 33 33 32 36 38 42 41 34 40 40 36 30 23 23 32 37 32 26 24 23 25 27 27 22 22 26 25 17 26 26 21 17 13 11 10 14 15 12 7 7 6 9 9
22 24 25 25 24 21 16 18 13 17 21 17 16 14 19 30 34 36 27 29 20 16 22 28 27 28 29 31 29 25 24 30 24 18 28 25 23 21 18 13 14 13 18 15 8 10 7 4 7
15 16 17 15 13 8 11 13 22 17 12 9 19 12 11 16 26 32 33 38 33 27 27 26 29 32 29 32 32 31 27 31 25 21 25 25 23 21 17 15 17 17 16 12 12 13 10 7 7
6 6 7 8 6 7 10 17 24 15 15 14 13 17 5 2 6 24 24 3 19 19 18 27 24 22 21 23 29 33 27 31 27 24 24 21 18 21 13 11 15 16 18 16 16 16 15 14 14
9 5 4 4 6 7 7 11 28 22 10 7 14 26 17 27 18 18 26 24 17 22 13 33 27 28 30 18 25 27 26 30 28 26 27 27 21 20 17 15 16 19 19 19 19 18 17 15 16
11 13 9 2 6 6 6 9 18 20 10 8 14 19 27 22 28 28 27 37 35 26 37 35 32 31 30 24 26 20 27 31 31 28 21 18 25 26 22 20 18 20 23 23 21 18 18 18 20
8 8 11 14 8 1 8 6 12 11 17 7 15 21 22 15 9 36 30 37 32 33 35 29 36 14 23 36 36 28 26 35 33 35 32 22 18 23 21 22 22 22 24 24 22 17 16 20 22
6 8 8 8 11 8 8 19 16 14 10 2 16 24 33 28 21 33 36 44 16 24 30 32 24 27 45 41 36 25 26 37 37 37 38 36 34 30 23 19 20 21 24 23 26 24 18 23 16
11 10 10 7 3 5 7 22 19 8 2 13 11 22 35 42 31 15 40 50 32 13 21 27 33 44 44 41 34 29 32 42 38 36 40 39 35 34 24 22 22 22 23 23 18 20 21 21 16
16 18 17 13 10 3 5 15 24 10 13 8 12 20 39 26 26 14 33 47 43 31 26 32 43 33 24 29 26 27 31 35 44 39 37 37 36 33 28 26 24 17 16 24 29 29 22 20 17
26 20 22 19 14 13 8 12 24 24 23 21 18 16 21 26 20 23 21 39 49 28 28 38 32 35 28 26 26 29 28 27 33 43 44 38 37 39 35 31 28 21 27 27 31 32 26 20 22
Wind_Direction
242 249 254 291 295 260 276 276 276 302 315 316 321 322 320 324 327 337 347 343 347 354 4 12 54 65 56 64 65 46 50 73 80 89 93 96 94 81 70 50 28 17 6 0 354 351 346 12 17
239 245 249 216 125 270 270 281 289 304 317 316 315 317 320 326 333 335 339 338 350 351 3 11 47 79 60 74 71 53 53 87 103 91 90 96 89 71 60 42 31 27 17 6 1 359 6 27 43
236 245 248 240 189 278 294 289 314 319 310 306 311 314 321 332 342 335 331 337 344 348 1 11 27 97 70 88 63 57 56 96 93 79 81 82 83 60 45 35 40 32 19 17 14 4 9 20 44
238 240 246 247 248 264 279 287 306 313 306 302 305 312 320 333 337 333 328 342 340 349 359 7 16 34 133 96 63 43 33 70 85 87 95 94 61 47 47 43 41 31 25 22 18 13 14 32 27
242 247 253 252 260 263 262 268 285 291 306 304 306 288 315 325 322 332 322 338 342 347 358 7 13 13 154 186 68 59 45 66 78 79 100 80 58 46 47 44 44 38 34 29 24 28 32 32 21
244 247 248 251 258 266 265 272 278 291 288 297 324 342 7 347 326 340 332 329 342 344 353 3 8 13 129 178 226 83 33 18 70 85 106 79 57 45 52 54 50 44 36 33 30 39 41 41 34
247 253 257 261 264 265 270 274 278 280 277 283 275 311 325 335 316 326 332 332 336 338 350 356 5 11 20 212 231 129 28 21 98 115 105 42 41 36 36 47 54 45 44 37 37 40 42 41 41
244 250 254 258 261 261 265 267 274 273 273 282 290 303 305 295 282 296 311 313 328 328 334 347 358 1 13 305 220 186 346 20 112 131 112 352 16 20 35 47 53 47 51 39 39 43 38 39 43
245 246 250 256 257 259 262 266 265 262 266 277 281 288 283 286 295 301 301 302 310 312 325 340 347 360 359 2 203 194 147 94 110 120 83 91 36 46 33 24 57 47 47 39 41 43 45 44 44
243 247 251 254 257 260 260 261 262 266 260 254 267 265 286 279 293 299 302 299 302 299 309 320 334 350 353 354 220 230 189 104 349 187 150 151 79 34 43 58 36 40 43 37 43 41 44 44 41
244 246 249 253 253 257 259 262 263 266 262 262 262 272 281 289 293 294 301 295 290 298 300 305 311 343 348 327 254 238 214 256 233 77 175 44 229 65 72 42 14 47 42 41 50 39 36 39 38
244 245 246 249 251 252 256 261 261 260 273 273 266 254 269 276 281 286 291 286 284 288 294 306 291 325 338 331 278 234 232 242 221 231 214 227 142 69 54 22 25 42 46 49 31 33 32 31 30
247 248 248 248 253 256 257 256 256 252 263 269 270 269 261 280 279 282 285 277 271 283 287 285 299 317 325 330 292 251 244 220 200 235 214 205 168 88 20 55 48 45 44 48 21 7 24 29 25
250 251 252 252 253 254 254 255 257 255 252 257 246 264 274 278 274 274 276 275 273 276 282 282 291 308 315 323 314 251 242 228 228 248 205 219 216 53 58 33 25 62 38 21 353 19 13 22 37
256 256 256 257 257 254 252 251 254 259 254 263 256 274 262 262 271 276 279 270 263 271 274 275 277 289 302 315 319 261 238 231 225 225 215 213 204 180 116 304 75 25 78 43 19 35 15 25 28
260 260 261 262 261 260 257 252 254 259 261 262 271 271 266 270 280 280 274 273 264 254 265 271 268 277 294 308 310 291 236 241 218 220 218 220 215 202 166 306 311 24 85 59 330 342 5 13 24
265 265 265 264 264 266 263 258 255 257 259 256 256 250 255 278 279 278 268 270 269 265 260 262 271 248 294 299 304 302 234 223 213 219 226 213 220 222 203 115 241 318 10 181 284 344 1 34 17
270 271 269 269 267 265 266 265 260 257 257 259 258 253 266 272 272 271 268 267 266 263 261 264 266 270 281 291 293 297 231 211 209 222 227 224 230 224 206 202 241 267 300 287 283 310 352 17 34
271 271 270 269 269 271 271 269 267 258 258 258 255 260 255 264 264 269 266 277 264 261 263 261 263 263 273 286 287 285 231 215 212 223 223 228 227 208 209 234 251 264 277 279 280 278 337 352 347
274 274 273 272 271 270 270 270 269 266 258 257 252 245 248 243 244 266 250 273 263 252 262 264 268 270 272 276 281 275 235 217 222 227 220 220 222 224 228 246 264 252 266 274 269 239 304 329 337
275 269 270 271 270 272 269 264 223 219 217 204 217 228 245 234 240 249 237 285 262 235 277 269 271 272 270 272 278 269 243 232 223 226 217 219 221 230 237 239 251 261 251 262 233 260 279 341 335
265 269 270 277 275 281 212 202 183 206 237 207 178 165 139 201 219 252 253 246 270 285 273 284 279 266 265 266 267 264 248 233 219 216 208 215 220 229 237 259 259 239 248 224 214 253 273 293 337
274 281 285 282 256 230 217 188 184 201 221 260 244 188 292 322 322 225 231 285 269 272 265 292 276 278 276 270 265 263 244 230 218 210 211 218 222 232 248 266 266 249 247 246 241 251 262 296 318
45 24 352 297 251 217 221 222 199 210 202 297 290 263 244 295 278 234 248 211 231 259 205 257 264 283 272 253 258 260 231 221 230 221 222 226 227 233 248 253 261 254 251 249 249 259 269 288 297
41 50 47 355 298 348 107 219 198 206 215 256 309 306 290 294 268 220 176 181 193 227 226 240 246 272 267 246 263 253 238 219 224 222 221 239 231 238 248 247 253 247 240 246 256 267 280 294 288
26 31 40 31 4 228 149 178 161 156 149 37 310 308 317 331 270 195 184 185 194 219 230 251 234 237 261 255 258 250 236 220 221 224 213 214 218 237 232 252 254 257 243 243 248 258 277 295 291
12 12 22 26 43 36 133 168 167 202 216 76 347 308 304 297 326 214 212 183 169 207 211 214 193 227 235 239 257 246 236 223 221 226 227 220 227 244 243 249 254 258 252 251 252 255 272 298 279
11 15 351 331 342 70 133 166 173 170 239 17 4 329 289 291 288 256 223 216 176 177 192 215 213 230 241 239 239 241 239 230 217 230 237 234 234 238 237 244 252 252 253 248 247 262 270 288 263
345 1 350 331 320 271 137 185 190 150 205 198 133 228 265 304 292 269 232 228 205 211 198 220 219 230 248 231 230 232 238 234 217 215 231 236 237 240 232 248 257 256 255 248 259 265 270 269 227
333 340 332 325 313 291 203 161 166 166 199 215 233 271 278 287 298 319 247 230 222 234 242 216 232 241 239 224 225 232 226 234 238 232 222 232 239 236 239 250 252 235 237 246 253 258 262 239 232
Height
11027 11027 11031 11035 11035 11038 11022 11021 11027 11026 11026 11028 11027 11028 11028 11023 11022 11021 11018 11017 11014 11011 11006 11000 10993 10991 10991 10991 10991 10989 10986 10987 10988 10988 10989 10990 10991 10990 10990 10988 10986 10984 10980 10973 10968 10961 10957 10956 10954
11027 11027 11025 11034 11035 11026 11024 11024 11024 11026 11026 11030 11028 11026 11026 11023 11021 11019 11018 11016 11014 11012 11008 11003 10996 10994 10994 10994 10994 10993 10991 10991 10991 10992 10992 10993 10993 10992 10990 10989 10987 10984 10979 10973 10966 10960 10957 10956 10955
11024 11025 11023 11027 11026 11018 11022 11022 11024 11025 11026 11025 11024 11023 11024 11023 11020 11018 11017 11017 11014 11011 11008 11006 10999 10997 10996 10996 10997 10997 10996 10994 10994 10994 10994 10994 10994 10992 10991 10991 10988 10985 10980 10973 10966 10960 10958 10956 10954
11021 11022 11022 11022 11020 11021 11019 11022 11025 11026 11023 11019 11019 11021 11017 11019 11021 11020 11017 11016 11014 11011 11009 11006 11002 10999 10997 10997 10998 11000 10999 10997 10997 10996 10996 10996 10994 10994 10994 10992 10990 10987 10982 10975 10967 10959 10957 10956 10954
11018 11021 11022 11022 11020 11020 11023 11026 11025 11029 11022 11012 11016 11018 11018 11016 11020 11022 11018 11016 11014 11012 11010 11008 11005 11000 10998 10998 10998 11000 11001 10999 10999 10998 10998 10997 10996 10994 10994 10993 10991 10988 10983 10977 10970 10962 10958 10958 10956
11012 11017 11018 11020 11019 11018 11021 11024 11024 11026 11019 11014 11021 11020 11017 11015 11020 11021 11019 11017 11014 11013 11011 11010 11007 11002 10999 10998 10999 11001 11001 11000 11000 11000 10999 10999 10998 10996 10994 10993 10991 10988 10984 10980 10974 10967 10961 10960 10958
11009 11011 11013 11014 11014 11015 11016 11021 11022 11023 11020 11013 11014 11015 11018 11017 11020 11021 11018 11017 11015 11014 11012 11011 11008 11004 11000 10999 11000 11002 11001 11001 11001 11001 11002 11002 11000 10998 10996 10994 10991 10988 10983 10980 10976 10970 10965 10963 10960
11009 11010 11010 11011 11010 11010 11012 11017 11017 11023 11020 11013 11010 11009 11011 11014 11020 11020 11017 11017 11015 11014 11014 11012 11010 11006 11002 10999 11000 11003 11003 11003 11002 11002 11003 11002 11001 11000 10997 10995 10992 10989 10984 10981 10978 10972 10969 10966 10963
11005 11008 11009 11007 11006 11005 11007 11012 11018 11019 11020 11016 11011 11009 11009 11014 11014 11015 11015 11013 11014 11014 11013 11012 11010 11007 11003 11001 11001 11003 11004 11005 11004 11003 11005 11003 11001 11000 10998 10997 10995 10992 10988 10985 10983 10977 10973 10970 10968
11000 11003 11004 11003 11002 11002 11002 11007 11012 11014 11015 11015 11013 11012 11010 11009 11010 11008 11010 11011 11011 11012 11014 11012 11008 11006 11003 11003 11002 11002 11003 11005 11004 11005 11005 11004 11001 11000 10999 10998 10997 10993 10991 10989 10986 10982 10977 10974 10973
10995 10997 10998 10998 10998 10997 10998 11002 11007 11004 11003 11004 11006 11006 11008 11002 11005 11007 11006 11007 11011 11010 11010 11010 11007 11004 11003 11001 11001 11000 11002 11004 11005 11006 11006 11004 11003 11001 11000 10998 10999 10995 10993 10990 10988 10986 10982 10978 10976
10989 10991 10992 10992 10992 10993 10994 10996 10998 10999 10995 10998 11000 11001 10998 10997 10998 11000 11002 11006 11008 11008 11010 11008 11006 11004 11002 11001 10999 10999 11000 11003 11006 11006 11006 11004 11003 11003 11003 11001 10998 10997 10995 10992 10991 10989 10985 10983 10981
10983 10985 10987 10987 10987 10988 10990 10992 10994 10995 10993 10990 10992 10991 10994 10995 10996 10997 10995 11000 11004 11003 11005 11005 11003 11002 11002 11000 11000 10999 10998 11002 11005 11005 11006 11006 11004 11005 11005 11003 11001 11000 10998 10997 10994 10992 10989 10987 10986
10977 10979 10981 10981 10982 10983 10985 10987 10986 10987 10987 10986 10986 10986 10989 10991 10993 10991 10991 10994 10998 11000 11001 11003 11000 11001 11002 11000 10999 10998 10998 10999 11004 11007 11006 11005 11004 11005 11004 11004 11004 11002 11002 11000 10998 10996 10993 10991 10989
10971 10973 10974 10974 10974 10975 10979 10982 10980 10978 10981 10978 10980 10984 10985 10986 10990 10990 10987 10990 10993 10996 10996 10997 10997 10999 11000 11001 10998 10995 10995 10996 11000 11006 11007 11006 11005 11008 11006 11007 11008 11005 11003 11004 11003 10999 10997 10996 10994
10964 10966 10967 10966 10965 10966 10971 10974 10978 10976 10974 10978 10977 10977 10980 10983 10985 10990 10986 10986 10991 10995 10992 10993 10993 10995 10997 10998 10998 10994 10993 10993 10997 11003 11006 11005 11005 11006 11008 11007 11007 11007 11006 11001 11002 11003 10999 10998 10995
10955 10957 10958 10957 10956 10955 10959 10966 10972 10968 10968 10969 10968 10973 10976 10977 10979 10981 10982 10983 10986 10987 10990 10990 10991 10992 10992 10993 10995 10993 10990 10990 10994 10999 11003 11004 11004 11006 11007 11006 11003 11005 11004 11006 11005 11005 11001 10999 10997
10946 10946 10947 10944 10943 10944 10945 10952 10956 10961 10960 10960 10964 10969 10971 10976 10973 10973 10973 10976 10981 10984 10983 10985 10986 10987 10987 10989 10990 10989 10987 10986 10990 10995 10999 11002 11001 11003 11004 11004 11003 11003 11004 11005 11005 11005 11002 11001 10999
10935 10935 10932 10931 10932 10933 10937 10938 10939 10948 10947 10946 10953 10958 10965 10968 10964 10963 10963 10964 10969 10976 10976 10978 10982 10983 10984 10984 10986 10985 10984 10984 10987 10989 10995 10997 11000 11000 11003 11004 11003 11002 11002 11005 11004 11004 11002 11001 11002
10924 10923 10921 10919 10919 10922 10925 10927 10929 10925 10932 10933 10936 10940 10947 10955 10954 10952 10953 10959 10963 10969 10973 10972 10974 10977 10979 10980 10980 10978 10978 10978 10980 10985 10989 10993 10997 10998 11001 11001 11001 11002 11001 11000 11001 11002 11003 11000 10999
10916 10913 10912 10910 10911 10914 10919 10920 10921 10919 10921 10923 10931 10933 10936 10943 10941 10944 10950 10956 10961 10965 10970 10971 10971 10970 10973 10975 10972 10971 10972 10974 10979 10982 10986 10991 10993 10994 10997 10999 10999 11000 11000 11000 10999 10999 11001 11000 11000
10909 10908 10906 10907 10908 10911 10910 10913 10917 10916 10916 10923 10928 10929 10928 10933 10940 10940 10947 10956 10959 10961 10963 10964 10961 10959 10962 10965 10966 10966 10967 10969 10975 10977 10981 10986 10989 10991 10992 10994 10995 10996 10997 10997 10996 10997 10999 11000 10998
10905 10905 10903 10903 10904 10904 10907 10911 10912 10915 10917 10918 10922 10923 10927 10925 10927 10936 10940 10947 10951 10954 10955 10950 10952 10955 10954 10955 10958 10960 10965 10967 10970 10973 10976 10981 10984 10986 10988 10990 10991 10993 10994 10994 10994 10996 10996 10997 10997
10905 10903 10901 10901 10899 10900 10902 10911 10915 10914 10917 10920 10921 10923 10921 10926 10928 10930 10931 10943 10936 10954 10941 10941 10945 10947 10951 10951 10954 10957 10960 10965 10963 10967 10970 10975 10978 10981 10984 10986 10987 10988 10989 10990 10989 10991 10994 10993 10993
10906 10903 10901 10899 10898 10900 10904 10906 10909 10911 10914 10914 10917 10913 10916 10918 10917 10918 10922 10930 10938 10940 10940 10942 10944 10947 10947 10947 10950 10953 10957 10960 10959 10961 10966 10969 10974 10977 10978 10980 10982 10983 10983 10984 10984 10986 10990 10991 10990
10906 10904 10902 10899 10899 10897 10900 10907 10907 10906 10911 10913 10912 10911 10909 10909 10910 10912 10915 10920 10920 10922 10932 10939 10943 10952 10933 10940 10943 10947 10950 10955 10956 10957 10962 10965 10970 10972 10976 10975 10976 10977 10980 10980 10980 10982 10985 10988 10986
10905 10903 10902 10900 10899 10897 10902 10903 10902 10902 10905 10913 10914 10913 10908 10908 10909 10909 10903 10909 10917 10919 10923 10932 10937 10938 10934 10937 10939 10940 10944 10950 10951 10953 10956 10961 10964 10965 10969 10972 10973 10974 10976 10978 10977 10978 10980 10983 10983
10905 10903 10902 10900 10898 10899 10900 10904 10904 10907 10908 10909 10908 10915 10906 10898 10905 10909 10904 10903 10914 10917 10919 10922 10928 10927 10929 10929 10930 10930 10933 10942 10944 10948 10952 10957 10958 10961 10966 10965 10967 10969 10970 10973 10974 10974 10974 10977 10978
10904 10901 10900 10899 10896 10896 10899 10905 10907 10907 10904 10903 10900 10896 10894 10895 10889 10899 10902 10900 10907 10907 10911 10917 10918 10915 10918 10921 10923 10923 10926 10934 10940 10943 10946 10951 10952 10954 10958 10960 10962 10964 10966 10968 10969 10970 10970 10972 10975
10896 10899 10897 10895 10893 10891 10895 10900 10902 10904 10898 10894 10891 10887 10886 10891 10890 10888 10896 10897 10899 10897 10896 10900 10902 10908 10912 10912 10917 10917 10922 10924 10930 10936 10941 10944 10947 10949 10953 10955 10958 10959 10960 10964 10964 10965 10966 10968 10969